Location: Brno
(49.2000°N, 16.6330°E)
Time: 06:12:22
(UTC+02:00)

Cosmos 332 Rocket - Visible Passes

Search period start: 16 April 2014 00:00
Search period end: 26 April 2014 00:00
Orbit: 685 x 708 km, 74.0° (Epoch: 15 April)

Date Brightness Start Highest point End Pass type
(mag) Time Alt. Az. Time Alt. Az. Time Alt. Az.
16 Apr 4.9 20:22:16 10° SSE 20:26:06 24° E 20:29:57 10° NE visible
16 Apr 4.7 22:01:38 10° SW 22:06:18 49° WNW 22:11:02 10° NNE visible
16 Apr 7.0 23:47:13 10° NW 23:48:06 10° NW 23:48:58 10° NNW visible
17 Apr 7.0 04:56:02 10° NNE 04:58:32 14° NE 05:01:02 10° ENE visible
17 Apr 3.7 21:02:57 10° SSW 21:07:44 69° ESE 21:12:34 10° NNE visible
17 Apr 6.4 22:45:09 10° W 22:48:46 21° NW 22:52:25 10° N visible
18 Apr 5.0 21:45:11 10° SW 21:49:47 44° WNW 21:54:28 10° NNE visible
19 Apr 7.0 04:39:16 10° N 04:42:06 15° NE 04:44:56 10° E visible
19 Apr 3.7 20:46:22 10° SSW 20:51:10 78° ESE 20:56:03 10° NNE visible
19 Apr 6.6 22:28:53 10° W 22:32:18 19° NW 22:35:45 10° N visible
20 Apr 5.3 21:28:46 10° SW 21:33:17 39° WNW 21:37:52 10° N visible
21 Apr 7.0 04:22:32 10° N 04:25:39 17° NE 04:28:47 10° E visible
21 Apr 3.8 20:29:47 10° SSW 20:34:37 88° ESE 20:39:31 10° NNE visible
21 Apr 6.8 22:12:40 10° W 22:15:51 17° NW 22:19:04 10° N visible
22 Apr 5.7 05:03:40 10° N 05:08:15 37° ENE 05:12:49 10° SE visible
22 Apr 5.6 21:12:21 10° WSW 21:16:47 35° WNW 21:21:16 10° N visible
23 Apr 6.9 04:05:50 10° N 04:09:12 18° NE 04:12:35 10° E visible
23 Apr 7.1 21:56:28 10° W 21:59:24 16° NW 22:02:21 10° N visible
24 Apr 5.4 04:47:04 10° NNW 04:51:45 41° ENE 04:56:24 10° SE visible
24 Apr 5.9 20:55:57 10° WSW 21:00:17 32° NW 21:04:39 10° N visible
25 Apr 6.7 03:49:08 10° N 03:52:45 20° NE 03:56:21 10° E visible
25 Apr 7.2 21:40:19 10° WNW 21:42:57 14° NW 21:45:36 10° N visible
